Location: Samoth
(37.3328°N, 88.7876°W)
Time: 19:45:22
(UTC+00:00)

X-37B - Pass Details

Date: 02 October 2021
Orbit: 385 x 389 km, 45.0° (Epoch: 17 October)

Event Time Altitude Azimuth Distance (km) Brightness Sun altitude
Exits shadow 11:02:03 13° 301° (WNW) 1,271 2.7 -10.7°
Maximum altitude 11:04:53 77° 28° (NNE) 400 0.7 -10.1°
Drops below altitude 10° 11:08:03 10° 114° (ESE) 1,408 4.5 -9.5°
Sets 11:10:07 0° 116° (ESE) 2,260 5.7 -9.1°
